Date String (YYYY-MM-DD hh:mm:ss) UTC,Instrument flags,Ambient pressure (hPa),Sample flow (lpm),Bypass flow (lpm),Sample temperature (°C),Ambient temperature (°C),ASC tube jacket temperature (°C),LED temperature (°C),Box temperature (°C),Sample RH (%),Span deviation,Mass concentration (μg/m³),Mass concentration (μg/m³),Mass concentration (μg/m³)
DateTimeUTC,F1_M11,P_M11,Q1_M11,Q2_M11,T1_M11,T2_M11,T3_M11,T4_M11,T5_M11,U1_M11,ZSPAN_M11,X0_M11,X2_M11,X1_M11
2022-05-25 07:00:00,,0825.5,5.01,0.00,26.6,25.5,00.0,35.5,28.5,16.0,0000.0,0004.92,0002.44,0001.97
2022-05-25 07:01:00,,0825.5,5.00,0.00,26.6,25.6,00.0,35.5,28.5,16.1,0000.0,0004.68,0002.45,0001.98
2022-05-25 07:02:00,,0825.6,5.00,0.00,26.6,25.6,00.0,35.5,28.5,16.4,0000.0,0004.51,0002.47,0002.01
2022-05-25 07:03:00,,0825.5,5.01,0.00,26.6,25.6,00.0,35.5,28.5,16.5,0000.0,0004.35,0002.42,0002.01
2022-05-25 07:04:00,,0825.5,5.00,0.00,26.6,25.6,00.0,35.6,28.5,16.5,0000.0,0004.31,0002.46,0002.03
2022-05-25 07:05:00,,0825.5,5.00,0.00,26.6,25.6,00.0,35.6,28.5,16.6,0000.0,0004.40,0002.50,0002.03
2022-05-25 07:06:00,,0825.5,4.99,0.00,26.6,25.6,00.0,35.6,28.5,16.6,0000.0,0004.41,0002.51,0002.03
2022-05-25 07:07:00,,0825.5,5.00,0.00,26.6,25.6,00.0,35.6,28.6,16.5,0000.0,0004.49,0002.54,0002.04
2022-05-25 07:08:00,,0825.5,5.01,0.00,26.6,25.6,00.0,35.6,28.6,16.3,0000.0,0004.24,0002.53,0002.04
2022-05-25 07:09:00,,0825.5,5.00,0.00,26.6,25.6,00.0,35.6,28.6,16.1,0000.0,0003.72,0002.54,0002.04
2022-05-25 07:10:00,,0825.6,5.00,0.00,26.6,25.6,00.0,35.6,28.6,16.1,0000.0,0003.70,0002.53,0002.03
2022-05-25 07:11:00,,0825.6,5.00,0.00,26.6,25.6,00.0,35.6,28.6,16.2,0000.0,0003.56,0002.48,0002.03
2022-05-25 07:12:00,,0825.5,4.99,0.00,26.6,25.6,00.0,35.6,28.5,16.1,0000.0,0003.61,0002.48,0002.01
2022-05-25 07:13:00,,0825.6,5.00,0.00,26.6,25.6,00.0,35.6,28.5,16.1,0000.0,0003.59,0002.45,0001.99
2022-05-25 07:14:00,,0825.6,5.00,0.00,26.6,25.6,00.0,35.6,28.5,16.2,0000.0,0003.48,0002.43,0001.99
2022-05-25 07:15:00,,0825.6,5.01,0.00,26.6,25.6,00.0,35.6,28.5,16.1,0000.0,0003.54,0002.42,0001.98
2022-05-25 07:16:00,,0825.5,5.00,0.00,26.6,25.6,00.0,35.6,28.5,16.1,0000.0,0003.63,0002.43,0001.98
2022-05-25 07:17:00,,0825.6,5.00,0.00,26.6,25.6,00.0,35.6,28.5,16.1,0000.0,0003.73,0002.48,0001.98
2022-05-25 07:18:00,,0825.6,5.00,0.00,26.6,25.6,00.0,35.6,28.5,16.0,0000.0,0003.81,0002.51,0001.98
2022-05-25 07:19:00,,0825.6,4.99,0.00,26.6,25.6,00.0,35.6,28.5,16.0,0000.0,0003.83,0002.49,0001.98
2022-05-25 07:20:00,,0825.6,5.01,0.00,26.6,25.6,00.0,35.6,28.6,16.1,0000.0,0003.87,0002.49,0001.98
2022-05-25 07:21:00,,0825.6,5.01,0.00,26.6,25.6,00.0,35.6,28.6,16.1,0000.0,0003.91,0002.51,0001.97
2022-05-25 07:22:00,,0825.6,5.00,0.00,26.6,25.6,00.0,35.6,28.6,16.0,0000.0,0003.93,0002.52,0001.96
2022-05-25 07:23:00,,0825.5,5.00,0.00,26.7,25.6,00.0,35.6,28.6,16.0,0000.0,0003.87,0002.50,0001.97
2022-05-25 07:24:00,,0825.6,4.99,0.00,26.7,25.6,00.0,35.6,28.6,16.4,0000.0,0004.62,0002.51,0001.96
2022-05-25 07:25:00,,0825.6,5.00,0.00,26.7,25.6,00.0,35.6,28.6,16.8,0000.0,0004.97,0002.52,0001.96
2022-05-25 07:26:00,,0825.6,5.01,0.00,26.6,25.6,00.0,35.6,28.6,17.0,0000.0,0004.95,0002.52,0001.98
2022-05-25 07:27:00,,0825.5,5.00,0.00,26.7,25.6,00.0,35.6,28.6,17.0,0000.0,0004.79,0002.51,0001.99
2022-05-25 07:28:00,,0825.5,5.00,0.00,26.7,25.6,00.0,35.6,28.6,17.2,0000.0,0004.80,0002.52,0002.00
2022-05-25 07:29:00,,0825.5,4.99,0.00,26.7,25.6,00.0,35.6,28.6,17.4,0000.0,0004.84,0002.54,0002.03
2022-05-25 07:30:00,,0825.6,5.01,0.00,26.6,25.6,00.0,35.6,28.6,17.4,0000.0,0004.83,0002.58,0002.05
2022-05-25 07:31:00,,0825.5,5.01,0.00,26.6,25.6,00.0,35.6,28.6,17.4,0000.0,0004.84,0002.62,0002.07
2022-05-25 07:32:00,,0825.5,5.00,0.00,26.7,25.6,00.0,35.6,28.6,17.4,0000.0,0005.01,0002.68,0002.10
2022-05-25 07:33:00,,0825.6,4.99,0.00,26.6,25.6,00.0,35.6,28.6,17.4,0000.0,0004.96,0002.68,0002.13
2022-05-25 07:34:00,,0825.6,4.98,0.00,26.7,25.6,00.0,35.6,28.6,17.4,0000.0,0004.94,0002.69,0002.16
2022-05-25 07:35:00,,0825.6,5.01,0.00,26.6,25.6,00.0,35.6,28.6,17.4,0000.0,0004.45,0002.73,0002.19
2022-05-25 07:36:00,,0825.5,5.00,0.00,26.7,25.6,00.0,35.6,28.6,17.5,0000.0,0004.01,0002.75,0002.21
2022-05-25 07:37:00,,0825.5,5.00,0.00,26.7,25.6,00.0,35.6,28.6,17.7,0000.0,0003.90,0002.75,0002.23
2022-05-25 07:38:00,,0825.6,5.00,0.00,26.7,25.6,00.0,35.6,28.5,17.8,0000.0,0003.92,0002.76,0002.26
2022-05-25 07:39:00,,0825.5,4.99,0.00,26.7,25.6,00.0,35.6,28.6,18.0,0000.0,0003.83,0002.74,0002.28
2022-05-25 07:40:00,,0825.5,5.00,0.00,26.6,25.6,00.0,35.6,28.6,18.1,0000.0,0003.63,0002.70,0002.30
2022-05-25 07:41:00,,0825.6,5.01,0.00,26.6,25.6,00.0,35.6,28.6,18.1,0000.0,0003.60,0002.70,0002.30
2022-05-25 07:42:00,,0825.6,5.00,0.00,26.7,25.6,00.0,35.6,28.6,18.1,0000.0,0003.56,0002.68,0002.32
2022-05-25 07:43:00,,0825.6,5.00,0.00,26.6,25.6,00.0,35.6,28.5,18.1,0000.0,0003.46,0002.64,0002.32
2022-05-25 07:44:00,,0825.6,4.99,0.00,26.6,25.6,00.0,35.6,28.5,18.2,0000.0,0003.61,0002.71,0002.34
2022-05-25 07:45:00,,0825.7,5.00,0.00,26.6,25.6,00.0,35.6,28.5,18.2,0000.0,0003.88,0002.78,0002.36
2022-05-25 07:46:00,,0825.7,5.01,0.00,26.6,25.6,00.0,35.6,28.5,18.3,0000.0,0004.78,0002.81,0002.38
2022-05-25 07:47:00,,0825.7,5.00,0.00,26.6,25.6,00.0,35.6,28.5,18.4,0000.0,0004.72,0002.81,0002.41
2022-05-25 07:48:00,,0825.7,5.01,0.00,26.6,25.6,00.0,35.6,28.5,18.5,0000.0,0004.77,0002.83,0002.41
2022-05-25 07:49:00,,0825.7,4.99,0.00,26.6,25.6,00.0,35.6,28.5,18.5,0000.0,0004.91,0002.87,0002.42
2022-05-25 07:50:00,,0825.7,5.00,0.00,26.6,25.6,00.0,35.6,28.5,18.6,0000.0,0004.95,0002.90,0002.44
2022-05-25 07:51:00,,0825.7,5.00,0.00,26.6,25.5,00.0,35.6,28.5,18.5,0000.0,0004.96,0002.89,0002.45
2022-05-25 07:52:00,,0825.7,5.00,0.00,26.6,25.5,00.0,35.6,28.5,18.4,0000.0,0005.05,0002.92,0002.46
2022-05-25 07:53:00,,0825.8,5.01,0.00,26.6,25.5,00.0,35.6,28.5,18.4,0000.0,0005.00,0002.90,0002.46
2022-05-25 07:54:00,,0825.7,4.99,0.00,26.6,25.5,00.0,35.6,28.5,18.3,0000.0,0004.94,0002.90,0002.47
2022-05-25 07:55:00,,0825.7,4.99,0.00,26.6,25.5,00.0,35.6,28.5,18.3,0000.0,0004.79,0002.86,0002.48
2022-05-25 07:56:00,,0825.7,5.00,0.00,26.6,25.5,00.0,35.5,28.5,18.2,0000.0,0004.61,0002.80,0002.47
2022-05-25 07:57:00,,0825.7,5.00,0.00,26.6,25.5,00.0,35.5,28.5,18.2,0000.0,0003.56,0002.75,0002.46
2022-05-25 07:58:00,,0825.6,5.01,0.00,26.6,25.5,00.0,35.5,28.5,18.1,0000.0,0003.56,0002.74,0002.44
2022-05-25 07:59:00,,0825.6,5.00,0.00,26.6,25.5,00.0,35.5,28.5,18.1,0000.0,0003.58,0002.74,0002.43
